SIRIUS-1 1 26390U 00035A 12037.49247227 .00000124 00000-0 00000-0 0 9838 2 26390 60.6521 247.7137 2675903 270.3226 59.4998 1.00276416 42510 SIRIUS-2 1 26483U 00051A 12040.15081202 .00000036 00000-0 10000-3 0 6142 2 26483 63.9239 127.4142 2677210 269.8460 59.8863 1.00281208 41879 SIRIUS-3 1 26626U 00077A 12039.81861504 -.00000100 00000-0 00000+0 0 8893 2 26626 64.2231 7.5039 2691937 269.6735 59.7931 1.00276216 41005 XM-2 (ROCK) 1 26724U 01012A 12040.45396826 -.00000027 00000-0 10000-3 0 1564 2 26724 0.0725 288.1474 0003742 20.6632 238.2906 1.00272098 39995 XM-1 (ROLL) 1 26761U 01018A 12041.21278078 -.00000027 00000-0 10000-3 0 9696 2 26761 0.0741 251.1220 0004067 339.7082 230.1972 1.00271342 39475 XM-3 (RHYTHM) 1 28626U 05008A 12041.20670581 -.00000210 00000-0 10000-3 0 1095 2 28626 0.0053 3.0687 0000339 272.9773 212.9271 1.00270537 25512 XM-4 (BLUES) 1 29520U 06049A 12040.50444591 -.00000027 00000-0 10000-3 0 8337 2 29520 0.0129 332.1810 0000726 257.1863 335.9724 1.00272468 19448